Time,TemperatureF,DewpointF,PressureIn,WindDirection,WindDirectionDegrees,WindSpeedMPH,WindSpeedGustMPH,Humidity,HourlyPrecipIn,Conditions,Clouds,dailyrainin,SoftwareType,DateUTC
2013-01-23 00:02:00,21.6,3.8,30.34,NNE,22,0.0,-999.0,46,0.00,Sunny,,0.00,Open2300\PHP-WU,2013-01-23 05:02:00,
2013-01-23 00:08:00,21.7,4.0,30.34,NNE,22,0.0,-999.0,46,0.00,Sunny,,0.00,Open2300\PHP-WU,2013-01-23 05:08:00,
2013-01-23 00:15:00,21.7,4.0,30.35,North,0,0.0,-999.0,46,0.00,Sunny,,0.00,Open2300\PHP-WU,2013-01-23 05:15:00,
2013-01-23 00:21:00,21.6,4.3,30.35,NNE,22,0.0,-999.0,47,0.00,Sunny,,0.00,Open2300\PHP-WU,2013-01-23 05:21:00,
2013-01-23 00:27:00,21.6,4.3,30.35,NNE,22,0.0,-999.0,47,0.00,Sunny,,0.00,Open2300\PHP-WU,2013-01-23 05:27:00,
2013-01-23 00:33:00,21.4,4.1,30.34,NNE,22,0.0,-999.0,47,0.00,Sunny,,0.00,Open2300\PHP-WU,2013-01-23 05:33:00,
2013-01-23 00:39:00,21.0,3.8,30.34,NNE,22,0.0,-999.0,47,0.00,Sunny,,0.00,Open2300\PHP-WU,2013-01-23 05:39:00,
2013-01-23 00:45:00,20.8,3.6,30.35,NNE,22,0.0,-999.0,47,0.00,Sunny,,0.00,Open2300\PHP-WU,2013-01-23 05:45:00,
2013-01-23 00:51:00,20.8,4.1,30.35,NNE,22,0.0,-999.0,48,0.00,Sunny,,0.00,Open2300\PHP-WU,2013-01-23 05:51:00,
2013-01-23 00:57:00,20.3,4.1,30.35,North,0,0.0,-999.0,49,0.00,Sunny,,0.00,Open2300\PHP-WU,2013-01-23 05:57:00,
2013-01-23 01:03:00,20.1,4.4,30.35,North,0,0.0,-999.0,50,0.00,Sunny,,0.00,Open2300\PHP-WU,2013-01-23 06:03:00,
2013-01-23 01:09:00,19.9,4.2,30.35,North,0,0.0,-999.0,50,0.00,Sunny,,0.00,Open2300\PHP-WU,2013-01-23 06:09:00,
2013-01-23 01:15:00,19.9,4.6,30.35,North,0,0.0,-999.0,51,0.00,Sunny,,0.00,Open2300\PHP-WU,2013-01-23 06:15:00,
2013-01-23 01:21:00,19.8,4.5,30.35,North,0,0.0,-999.0,51,0.00,Sunny,,0.00,Open2300\PHP-WU,2013-01-23 06:21:00,
2013-01-23 01:27:00,19.6,4.7,30.35,North,0,0.0,-999.0,52,0.00,Sunny,,0.00,Open2300\PHP-WU,2013-01-23 06:27:00,
2013-01-23 01:33:00,19.6,4.7,30.35,North,0,0.0,-999.0,52,0.00,Sunny,,0.00,Open2300\PHP-WU,2013-01-23 06:33:00,
2013-01-23 01:39:00,19.4,4.9,30.35,North,0,0.0,-999.0,53,0.00,Sunny,,0.00,Open2300\PHP-WU,2013-01-23 06:39:00,
2013-01-23 01:45:00,19.2,5.2,30.35,North,0,0.0,-999.0,54,0.00,Sunny,,0.00,Open2300\PHP-WU,2013-01-23 06:45:00,
2013-01-23 01:51:00,19.2,5.6,30.35,North,0,0.0,-999.0,55,0.00,Sunny,,0.00,Open2300\PHP-WU,2013-01-23 06:51:00,
2013-01-23 01:57:00,19.0,5.4,30.35,North,0,0.0,-999.0,55,0.00,Sunny,,0.00,Open2300\PHP-WU,2013-01-23 06:57:00,
2013-01-23 02:03:00,19.0,5.8,30.35,NNE,22,0.0,-999.0,56,0.00,Sunny,,0.00,Open2300\PHP-WU,2013-01-23 07:03:00,
2013-01-23 02:09:00,19.2,6.0,30.35,North,0,0.0,-999.0,56,0.00,Sunny,,0.00,Open2300\PHP-WU,2013-01-23 07:09:00,
2013-01-23 02:15:00,19.2,6.4,30.35,NNE,22,0.0,-999.0,57,0.00,Sunny,,0.00,Open2300\PHP-WU,2013-01-23 07:15:00,
2013-01-23 02:21:00,19.2,6.4,30.35,North,0,0.0,-999.0,57,0.00,Sunny,,0.00,Open2300\PHP-WU,2013-01-23 07:21:00,
2013-01-23 02:27:00,19.2,6.4,30.36,North,0,0.0,-999.0,57,0.00,Sunny,,0.00,Open2300\PHP-WU,2013-01-23 07:27:00,
2013-01-23 02:33:00,19.2,6.4,30.36,North,0,0.0,-999.0,57,0.00,Sunny,,0.00,Open2300\PHP-WU,2013-01-23 07:33:00,
2013-01-23 02:39:00,18.9,6.0,30.36,North,0,0.0,-999.0,57,0.00,Sunny,,0.00,Open2300\PHP-WU,2013-01-23 07:39:00,
2013-01-23 02:45:00,18.7,6.3,30.36,North,0,0.0,-999.0,58,0.00,Sunny,,0.00,Open2300\PHP-WU,2013-01-23 07:45:00,
2013-01-23 02:51:00,18.7,6.3,30.36,North,0,0.0,-999.0,58,0.00,Sunny,,0.00,Open2300\PHP-WU,2013-01-23 07:51:00,
2013-01-23 02:57:00,18.5,6.1,30.36,North,0,0.0,-999.0,58,0.00,Sunny,,0.00,Open2300\PHP-WU,2013-01-23 07:57:00,
2013-01-23 03:03:00,18.3,6.3,30.36,North,0,0.0,-999.0,59,0.00,Sunny,,0.00,Open2300\PHP-WU,2013-01-23 08:03:00,
2013-01-23 03:09:00,18.3,6.3,30.36,North,0,0.0,-999.0,59,0.00,Sunny,,0.00,Open2300\PHP-WU,2013-01-23 08:09:00,
2013-01-23 03:14:00,18.1,6.6,30.36,North,0,0.0,-999.0,60,0.00,Sunny,,0.00,Open2300\PHP-WU,2013-01-23 08:14:00,
2013-01-23 03:21:00,18.1,6.6,30.35,North,0,0.0,-999.0,60,0.00,Sunny,,0.00,Open2300\PHP-WU,2013-01-23 08:21:00,
2013-01-23 03:27:00,18.0,6.4,30.36,North,0,0.0,-999.0,60,0.00,Sunny,,0.00,Open2300\PHP-WU,2013-01-23 08:27:00,
2013-01-23 03:33:00,17.8,6.6,30.36,North,0,0.0,-999.0,61,0.00,Sunny,,0.00,Open2300\PHP-WU,2013-01-23 08:33:00,
2013-01-23 03:39:00,17.6,6.4,30.36,North,0,0.0,-999.0,61,0.00,Sunny,,0.00,Open2300\PHP-WU,2013-01-23 08:39:00,
2013-01-23 03:45:00,17.4,6.6,30.36,North,0,0.0,-999.0,62,0.00,Sunny,,0.00,Open2300\PHP-WU,2013-01-23 08:45:00,
2013-01-23 03:51:00,17.4,6.6,30.36,North,0,0.0,-999.0,62,0.00,Sunny,,0.00,Open2300\PHP-WU,2013-01-23 08:51:00,
2013-01-23 03:57:00,17.2,6.7,30.36,North,0,0.0,-999.0,63,0.00,Sunny,,0.00,Open2300\PHP-WU,2013-01-23 08:57:00,
2013-01-23 04:02:00,17.2,6.7,30.36,North,0,0.0,-999.0,63,0.00,Sunny,,0.00,Open2300\PHP-WU,2013-01-23 09:02:00,
2013-01-23 04:08:00,16.9,6.4,30.35,North,0,0.0,-999.0,63,0.00,Sunny,,0.00,Open2300\PHP-WU,2013-01-23 09:08:00,
2013-01-23 04:14:00,16.9,6.4,30.36,North,0,0.0,-999.0,63,0.00,Sunny,,0.00,Open2300\PHP-WU,2013-01-23 09:14:00,
2013-01-23 04:21:00,16.7,6.5,30.36,North,0,0.0,-999.0,64,0.00,Sunny,,0.00,Open2300\PHP-WU,2013-01-23 09:21:00,
2013-01-23 04:27:00,16.5,6.4,30.36,North,0,0.0,-999.0,64,0.00,Sunny,,0.00,Open2300\PHP-WU,2013-01-23 09:27:00,
2013-01-23 04:32:00,16.3,6.2,30.37,North,0,0.0,-999.0,64,0.00,Sunny,,0.00,Open2300\PHP-WU,2013-01-23 09:32:00,
2013-01-23 04:39:00,16.3,6.2,30.37,North,0,0.0,-999.0,64,0.00,Sunny,,0.00,Open2300\PHP-WU,2013-01-23 09:39:00,
2013-01-23 04:44:00,16.3,6.5,30.37,North,0,0.0,-999.0,65,0.00,Sunny,,0.00,Open2300\PHP-WU,2013-01-23 09:44:00,
2013-01-23 04:50:00,16.3,6.5,30.38,North,0,0.0,-999.0,65,0.00,Sunny,,0.00,Open2300\PHP-WU,2013-01-23 09:50:00,
2013-01-23 04:57:00,16.2,6.4,30.38,North,0,0.0,-999.0,65,0.00,Sunny,,0.00,Open2300\PHP-WU,2013-01-23 09:57:00,
2013-01-23 05:02:00,16.0,6.2,30.38,North,0,0.0,-999.0,65,0.00,Sunny,,0.00,Open2300\PHP-WU,2013-01-23 10:02:00,
2013-01-23 05:08:00,16.0,6.2,30.38,North,0,0.0,-999.0,65,0.00,Sunny,,0.00,Open2300\PHP-WU,2013-01-23 10:08:00,
2013-01-23 05:14:00,16.0,6.5,30.38,North,0,0.0,-999.0,66,0.00,Sunny,,0.00,Open2300\PHP-WU,2013-01-23 10:14:00,
2013-01-23 05:20:00,15.8,6.3,30.38,North,0,0.0,-999.0,66,0.00,Sunny,,0.00,Open2300\PHP-WU,2013-01-23 10:20:00,
2013-01-23 05:26:00,15.8,6.3,30.38,North,0,0.0,-999.0,66,0.00,Sunny,,0.00,Open2300\PHP-WU,2013-01-23 10:26:00,
2013-01-23 05:32:00,15.8,6.3,30.38,North,0,0.0,-999.0,66,0.00,Sunny,,0.00,Open2300\PHP-WU,2013-01-23 10:32:00,
2013-01-23 05:38:00,15.6,6.2,30.38,North,0,0.0,-999.0,66,0.00,Sunny,,0.00,Open2300\PHP-WU,2013-01-23 10:38:00,
2013-01-23 05:44:00,15.6,6.5,30.39,North,0,0.0,-999.0,67,0.00,Sunny,,0.00,Open2300\PHP-WU,2013-01-23 10:44:00,
2013-01-23 05:50:00,15.6,6.5,30.38,North,0,0.0,-999.0,67,0.00,Sunny,,0.00,Open2300\PHP-WU,2013-01-23 10:50:00,
2013-01-23 05:56:00,15.6,6.5,30.39,North,0,0.0,-999.0,67,0.00,Sunny,,0.00,Open2300\PHP-WU,2013-01-23 10:56:00,
2013-01-23 06:03:00,15.6,6.5,30.39,North,0,0.0,-999.0,67,0.00,Sunny,,0.00,Open2300\PHP-WU,2013-01-23 11:03:00,
2013-01-23 06:09:00,15.6,6.9,30.39,North,0,0.0,-999.0,68,0.00,Sunny,,0.00,Open2300\PHP-WU,2013-01-23 11:09:00,
2013-01-23 06:14:00,15.6,6.9,30.39,North,0,0.0,-999.0,68,0.00,Sunny,,0.00,Open2300\PHP-WU,2013-01-23 11:14:00,
2013-01-23 06:20:00,15.6,6.9,30.39,North,0,0.0,-999.0,68,0.00,Sunny,,0.00,Open2300\PHP-WU,2013-01-23 11:20:00,
2013-01-23 06:26:00,15.6,6.9,30.38,North,0,0.0,-999.0,68,0.00,Sunny,,0.00,Open2300\PHP-WU,2013-01-23 11:26:00,
2013-01-23 06:38:00,15.6,6.9,30.40,North,0,0.0,-999.0,68,0.00,Sunny,,0.00,Open2300\PHP-WU,2013-01-23 11:38:00,
2013-01-23 06:44:00,15.6,7.2,30.40,North,0,0.0,-999.0,69,0.00,Sunny,,0.00,Open2300\PHP-WU,2013-01-23 11:44:00,
2013-01-23 06:50:00,15.6,7.2,30.40,North,0,0.0,-999.0,69,0.00,Sunny,,0.00,Open2300\PHP-WU,2013-01-23 11:50:00,
2013-01-23 06:57:00,15.4,7.0,30.41,North,0,0.0,-999.0,69,0.00,Sunny,,0.00,Open2300\PHP-WU,2013-01-23 11:57:00,
2013-01-23 07:02:00,15.4,7.0,30.41,North,0,0.0,-999.0,69,0.00,Sunny,,0.00,Open2300\PHP-WU,2013-01-23 12:02:00,
2013-01-23 07:08:00,15.6,7.2,30.41,North,0,0.0,-999.0,69,0.00,Sunny,,0.00,Open2300\PHP-WU,2013-01-23 12:08:00,
2013-01-23 07:14:00,15.4,7.0,30.41,North,0,0.0,-999.0,69,0.00,Sunny,,0.00,Open2300\PHP-WU,2013-01-23 12:14:00,
2013-01-23 07:20:00,15.4,7.4,30.41,North,0,0.0,-999.0,70,0.00,Sunny,,0.00,Open2300\PHP-WU,2013-01-23 12:20:00,
2013-01-23 07:26:00,15.4,7.4,30.42,North,0,0.0,-999.0,70,0.00,Sunny,,0.00,Open2300\PHP-WU,2013-01-23 12:26:00,
2013-01-23 07:32:00,15.4,7.4,30.42,North,0,0.0,-999.0,70,0.00,Sunny,,0.00,Open2300\PHP-WU,2013-01-23 12:32:00,
2013-01-23 07:38:00,15.4,7.4,30.42,North,0,0.0,-999.0,70,0.00,Sunny,,0.00,Open2300\PHP-WU,2013-01-23 12:38:00,
2013-01-23 07:44:00,15.4,7.4,30.41,North,0,0.0,-999.0,70,0.00,Sunny,,0.00,Open2300\PHP-WU,2013-01-23 12:44:00,
2013-01-23 07:50:00,15.4,7.4,30.41,North,0,0.0,-999.0,70,0.00,Sunny,,0.00,Open2300\PHP-WU,2013-01-23 12:50:00,
2013-01-23 07:56:00,15.6,7.8,30.42,North,0,0.0,-999.0,71,0.00,Sunny,,0.00,Open2300\PHP-WU,2013-01-23 12:56:00,
2013-01-23 08:02:00,15.8,8.0,30.42,North,0,0.0,-999.0,71,0.00,Sunny,,0.00,Open2300\PHP-WU,2013-01-23 13:02:00,
2013-01-23 08:08:00,16.0,8.2,30.42,North,0,0.0,-999.0,71,0.00,Sunny,,0.00,Open2300\PHP-WU,2013-01-23 13:08:00,
2013-01-23 08:14:00,16.2,8.3,30.41,North,0,0.0,-999.0,71,0.00,Sunny,,0.00,Open2300\PHP-WU,2013-01-23 13:14:00,
2013-01-23 08:20:00,16.5,8.7,30.41,North,0,0.0,-999.0,71,0.00,Sunny,,0.00,Open2300\PHP-WU,2013-01-23 13:20:00,
2013-01-23 08:26:00,16.9,9.1,30.41,North,0,0.0,-999.0,71,0.00,Sunny,,0.00,Open2300\PHP-WU,2013-01-23 13:26:00,
2013-01-23 08:32:00,17.2,9.4,30.42,North,0,0.0,-999.0,71,0.00,Sunny,,0.00,Open2300\PHP-WU,2013-01-23 13:32:00,
2013-01-23 08:38:00,17.8,9.9,30.42,North,0,0.0,-999.0,71,0.00,Sunny,,0.00,Open2300\PHP-WU,2013-01-23 13:38:00,
2013-01-23 08:44:00,18.5,10.3,30.43,North,0,0.0,-999.0,70,0.00,Sunny,,0.00,Open2300\PHP-WU,2013-01-23 13:44:00,
2013-01-23 08:50:00,19.2,10.6,30.42,NNE,22,0.0,-999.0,69,0.00,Sunny,,0.00,Open2300\PHP-WU,2013-01-23 13:50:00,
2013-01-23 08:56:00,20.1,10.8,30.42,North,0,0.0,-999.0,67,0.00,Sunny,,0.00,Open2300\PHP-WU,2013-01-23 13:56:00,
2013-01-23 09:02:00,21.4,11.4,30.43,NNE,22,0.0,-999.0,65,0.00,Sunny,,0.00,Open2300\PHP-WU,2013-01-23 14:02:00,
2013-01-23 09:08:00,23.9,12.0,30.43,NNW,337,0.0,-999.0,60,0.00,Sunny,,0.00,Open2300\PHP-WU,2013-01-23 14:08:00,
2013-01-23 09:14:00,28.6,15.3,30.43,NNW,337,0.0,-999.0,57,0.00,Sunny,,0.00,Open2300\PHP-WU,2013-01-23 14:14:00,
2013-01-23 09:20:00,31.3,15.6,30.43,SW,225,0.0,-999.0,52,0.00,Sunny,,0.00,Open2300\PHP-WU,2013-01-23 14:20:00,
2013-01-23 09:26:00,34.3,16.6,30.43,WSW,247,0.0,-999.0,48,0.00,Sunny,,0.00,Open2300\PHP-WU,2013-01-23 14:26:00,
2013-01-23 09:32:00,36.0,16.1,30.43,WNW,292,0.0,-999.0,44,0.00,Sunny,,0.00,Open2300\PHP-WU,2013-01-23 14:32:00,
2013-01-23 09:38:00,37.0,15.5,30.44,NNE,22,0.0,-999.0,41,0.00,Sunny,,0.00,Open2300\PHP-WU,2013-01-23 14:38:00,
2013-01-23 09:44:00,37.0,14.9,30.44,SW,225,0.0,-999.0,40,0.00,Sunny,,0.00,Open2300\PHP-WU,2013-01-23 14:44:00,
2013-01-23 09:50:00,36.7,14.0,30.44,North,0,0.0,-999.0,38,0.00,Sunny,,0.00,Open2300\PHP-WU,2013-01-23 14:50:00,
2013-01-23 09:56:00,36.0,13.3,30.44,North,0,0.0,-999.0,39,0.00,Sunny,,0.00,Open2300\PHP-WU,2013-01-23 14:56:00,
2013-01-23 10:02:00,36.0,12.7,30.44,NNE,22,0.0,-999.0,38,0.00,Sunny,,0.00,Open2300\PHP-WU,2013-01-23 15:02:00,
2013-01-23 10:08:00,36.0,12.0,30.44,NE,45,1.6,-999.0,37,0.00,Sunny,,0.00,Open2300\PHP-WU,2013-01-23 15:08:00,
2013-01-23 10:14:00,35.8,11.9,30.44,SSW,202,0.0,-999.0,37,0.00,Sunny,,0.00,Open2300\PHP-WU,2013-01-23 15:14:00,
2013-01-23 10:20:00,35.8,12.5,30.44,SW,225,0.0,-999.0,38,0.00,Sunny,,0.00,Open2300\PHP-WU,2013-01-23 15:20:00,
2013-01-23 10:26:00,34.9,9.1,30.44,NNW,337,2.7,-999.0,34,0.00,Sunny,,0.00,Open2300\PHP-WU,2013-01-23 15:26:00,
2013-01-23 10:32:00,34.0,9.0,30.44,NNW,337,0.0,-999.0,35,0.00,Sunny,,0.00,Open2300\PHP-WU,2013-01-23 15:32:00,
2013-01-23 10:38:00,33.8,8.9,30.43,North,0,0.0,-999.0,35,0.00,Sunny,,0.00,Open2300\PHP-WU,2013-01-23 15:38:00,
2013-01-23 10:44:00,34.3,9.9,30.43,West,270,0.0,-999.0,36,0.00,Sunny,,0.00,Open2300\PHP-WU,2013-01-23 15:44:00,
2013-01-23 10:50:00,35.2,10.4,30.43,WSW,247,0.0,-999.0,36,0.00,Sunny,,0.00,Open2300\PHP-WU,2013-01-23 15:50:00,
2013-01-23 10:56:00,35.8,11.9,30.43,WSW,247,0.0,-999.0,37,0.00,Sunny,,0.00,Open2300\PHP-WU,2013-01-23 15:56:00,
2013-01-23 11:02:00,36.1,11.5,30.43,WSW,247,0.0,-999.0,36,0.00,Sunny,,0.00,Open2300\PHP-WU,2013-01-23 16:02:00,
2013-01-23 11:08:00,36.7,11.4,30.42,West,270,0.0,-999.0,35,0.00,Sunny,,0.00,Open2300\PHP-WU,2013-01-23 16:08:00,
2013-01-23 11:14:00,36.9,10.9,30.42,North,0,0.0,-999.0,34,0.00,Sunny,,0.00,Open2300\PHP-WU,2013-01-23 16:14:00,
2013-01-23 11:20:00,36.1,10.2,30.41,SSW,202,0.0,-999.0,34,0.00,Sunny,,0.00,Open2300\PHP-WU,2013-01-23 16:20:00,
2013-01-23 11:26:00,36.3,11.0,30.41,WSW,247,0.0,-999.0,35,0.00,Sunny,,0.00,Open2300\PHP-WU,2013-01-23 16:26:00,
2013-01-23 11:32:00,37.2,11.9,30.40,WSW,247,0.0,-999.0,35,0.00,Sunny,,0.00,Open2300\PHP-WU,2013-01-23 16:32:00,
2013-01-23 11:38:00,37.9,12.5,30.40,WSW,247,0.0,-999.0,35,0.00,Sunny,,0.00,Open2300\PHP-WU,2013-01-23 16:38:00,
2013-01-23 11:44:00,38.5,12.3,30.39,WSW,247,0.0,-999.0,34,0.00,Sunny,,0.00,Open2300\PHP-WU,2013-01-23 16:44:00,
2013-01-23 11:50:00,39.0,12.8,30.39,West,270,0.0,-999.0,34,0.00,Sunny,,0.00,Open2300\PHP-WU,2013-01-23 16:50:00,
2013-01-23 11:56:00,39.4,13.2,30.38,East,90,0.0,-999.0,34,0.00,Sunny,,0.00,Open2300\PHP-WU,2013-01-23 16:56:00,
2013-01-23 12:02:00,39.6,13.3,30.38,NNW,337,0.0,-999.0,34,0.00,Sunny,,0.00,Open2300\PHP-WU,2013-01-23 17:02:00,
2013-01-23 12:08:00,39.7,13.5,30.38,West,270,0.0,-999.0,34,0.00,Sunny,,0.00,Open2300\PHP-WU,2013-01-23 17:08:00,
2013-01-23 12:15:00,40.1,13.8,30.38,SSW,202,0.0,-999.0,34,0.00,Sunny,,0.00,Open2300\PHP-WU,2013-01-23 17:15:00,
2013-01-23 12:21:00,39.7,12.8,30.36,North,0,0.0,-999.0,33,0.00,Sunny,,0.00,Open2300\PHP-WU,2013-01-23 17:21:00,
2013-01-23 12:27:00,39.9,13.6,30.36,WSW,247,0.0,-999.0,34,0.00,Sunny,,0.00,Open2300\PHP-WU,2013-01-23 17:27:00,
2013-01-23 12:33:00,40.5,14.1,30.35,WSW,247,0.0,-999.0,34,0.00,Sunny,,0.00,Open2300\PHP-WU,2013-01-23 17:33:00,
2013-01-23 12:39:00,40.8,14.5,30.35,WSW,247,0.0,-999.0,34,0.00,Sunny,,0.00,Open2300\PHP-WU,2013-01-23 17:39:00,
2013-01-23 12:45:00,41.5,15.1,30.34,SW,225,0.0,-999.0,34,0.00,Sunny,,0.00,Open2300\PHP-WU,2013-01-23 17:45:00,
2013-01-23 12:51:00,41.9,14.7,30.33,West,270,0.0,-999.0,33,0.00,Sunny,,0.00,Open2300\PHP-WU,2013-01-23 17:51:00,
2013-01-23 12:57:00,42.3,15.7,30.33,West,270,0.0,-999.0,34,0.00,Sunny,,0.00,Open2300\PHP-WU,2013-01-23 17:57:00,
2013-01-23 13:03:00,42.4,15.2,30.33,West,270,0.0,-999.0,33,0.00,Sunny,,0.00,Open2300\PHP-WU,2013-01-23 18:03:00,
2013-01-23 13:09:00,42.6,16.0,30.32,SSW,202,0.0,-999.0,34,0.00,Sunny,,0.00,Open2300\PHP-WU,2013-01-23 18:09:00,
2013-01-23 13:15:00,43.0,15.6,30.32,NNE,22,0.0,-999.0,33,0.00,Sunny,,0.00,Open2300\PHP-WU,2013-01-23 18:15:00,
2013-01-23 13:21:00,42.6,15.3,30.31,WSW,247,0.0,-999.0,33,0.00,Sunny,,0.00,Open2300\PHP-WU,2013-01-23 18:21:00,
2013-01-23 13:27:00,42.6,16.0,30.31,WSW,247,0.0,-999.0,34,0.00,Sunny,,0.00,Open2300\PHP-WU,2013-01-23 18:27:00,
2013-01-23 13:33:00,42.6,16.0,30.31,WSW,247,0.0,-999.0,34,0.00,Cloudy,,0.00,Open2300\PHP-WU,2013-01-23 18:33:00,
2013-01-23 13:39:00,42.6,16.0,30.31,WSW,247,0.0,-999.0,34,0.00,Cloudy,,0.00,Open2300\PHP-WU,2013-01-23 18:39:00,
2013-01-23 13:45:00,43.0,16.3,30.30,SW,225,0.0,-999.0,34,0.00,Cloudy,,0.00,Open2300\PHP-WU,2013-01-23 18:45:00,
2013-01-23 13:51:00,43.0,16.3,30.30,WSW,247,0.0,-999.0,34,0.00,Cloudy,,0.00,Open2300\PHP-WU,2013-01-23 18:51:00,
2013-01-23 13:57:00,43.2,16.4,30.30,SW,225,0.0,-999.0,34,0.00,Cloudy,,0.00,Open2300\PHP-WU,2013-01-23 18:57:00,
2013-01-23 14:03:00,43.3,16.6,30.30,SW,225,0.0,-999.0,34,0.00,Cloudy,,0.00,Open2300\PHP-WU,2013-01-23 19:03:00,
2013-01-23 14:09:00,43.3,16.6,30.29,West,270,0.0,-999.0,34,0.00,Cloudy,,0.00,Open2300\PHP-WU,2013-01-23 19:09:00,
2013-01-23 14:15:00,42.6,16.0,30.29,WSW,247,0.0,-999.0,34,0.00,Cloudy,,0.00,Open2300\PHP-WU,2013-01-23 19:15:00,
2013-01-23 14:21:00,43.3,17.3,30.29,WSW,247,0.0,-999.0,35,0.00,Cloudy,,0.00,Open2300\PHP-WU,2013-01-23 19:21:00,
2013-01-23 14:27:00,44.2,17.4,30.29,WSW,247,0.0,-999.0,34,0.00,Cloudy,,0.00,Open2300\PHP-WU,2013-01-23 19:27:00,
2013-01-23 14:33:00,44.1,17.3,30.28,WSW,247,0.0,-999.0,34,0.00,Cloudy,,0.00,Open2300\PHP-WU,2013-01-23 19:33:00,
2013-01-23 14:39:00,43.9,17.1,30.28,WSW,247,0.0,-999.0,34,0.00,Cloudy,,0.00,Open2300\PHP-WU,2013-01-23 19:39:00,
2013-01-23 14:45:00,43.7,16.9,30.28,WSW,247,0.0,-999.0,34,0.00,Cloudy,,0.00,Open2300\PHP-WU,2013-01-23 19:45:00,
2013-01-23 14:51:00,42.6,16.0,30.28,SSW,202,0.0,-999.0,34,0.00,Cloudy,,0.00,Open2300\PHP-WU,2013-01-23 19:51:00,
2013-01-23 14:57:00,41.9,16.0,30.28,SW,225,0.0,-999.0,35,0.00,Cloudy,,0.00,Open2300\PHP-WU,2013-01-23 19:57:00,
2013-01-23 15:03:00,41.9,16.7,30.28,West,270,1.3,-999.0,36,0.00,Cloudy,,0.00,Open2300\PHP-WU,2013-01-23 20:03:00,
2013-01-23 15:09:00,42.4,17.1,30.27,WNW,292,0.0,-999.0,36,0.00,Cloudy,,0.00,Open2300\PHP-WU,2013-01-23 20:09:00,
2013-01-23 15:15:00,43.3,17.9,30.27,WSW,247,0.0,-999.0,36,0.00,Cloudy,,0.00,Open2300\PHP-WU,2013-01-23 20:15:00,
2013-01-23 15:20:00,45.0,18.7,30.27,WSW,247,0.0,-999.0,35,0.00,Cloudy,,0.00,Open2300\PHP-WU,2013-01-23 20:20:00,
2013-01-23 15:27:00,45.7,19.4,30.27,North,0,0.0,-999.0,35,0.00,Cloudy,,0.00,Open2300\PHP-WU,2013-01-23 20:27:00,
2013-01-23 15:33:00,44.8,17.9,30.27,WSW,247,0.0,-999.0,34,0.00,Cloudy,,0.00,Open2300\PHP-WU,2013-01-23 20:33:00,
2013-01-23 15:39:00,44.6,17.7,30.27,WSW,247,0.0,-999.0,34,0.00,Cloudy,,0.00,Open2300\PHP-WU,2013-01-23 20:39:00,
2013-01-23 15:45:00,45.3,19.1,30.27,WSW,247,0.0,-999.0,35,0.00,Cloudy,,0.00,Open2300\PHP-WU,2013-01-23 20:45:00,
2013-01-23 15:51:00,45.9,18.9,30.26,WSW,247,0.0,-999.0,34,0.00,Cloudy,,0.00,Open2300\PHP-WU,2013-01-23 20:51:00,
2013-01-23 15:56:00,45.5,18.6,30.26,WSW,247,0.0,-999.0,34,0.00,Cloudy,,0.00,Open2300\PHP-WU,2013-01-23 20:56:00,
2013-01-23 16:02:00,44.8,17.9,30.26,WSW,247,0.0,-999.0,34,0.00,Cloudy,,0.00,Open2300\PHP-WU,2013-01-23 21:02:00,
2013-01-23 16:08:00,44.4,17.6,30.26,WSW,247,0.0,-999.0,34,0.00,Cloudy,,0.00,Open2300\PHP-WU,2013-01-23 21:08:00,
2013-01-23 16:14:00,44.1,17.9,30.26,WSW,247,0.0,-999.0,35,0.00,Cloudy,,0.00,Open2300\PHP-WU,2013-01-23 21:14:00,
2013-01-23 16:21:00,43.5,17.4,30.26,WSW,247,1.6,-999.0,35,0.00,Cloudy,,0.00,Open2300\PHP-WU,2013-01-23 21:21:00,
2013-01-23 16:26:00,43.3,17.3,30.26,WSW,247,0.0,-999.0,35,0.00,Cloudy,,0.00,Open2300\PHP-WU,2013-01-23 21:26:00,
2013-01-23 16:32:00,42.6,16.6,30.26,WSW,247,0.0,-999.0,35,0.00,Cloudy,,0.00,Open2300\PHP-WU,2013-01-23 21:32:00,
2013-01-23 16:38:00,42.4,16.5,30.27,WSW,247,0.0,-999.0,35,0.00,Cloudy,,0.00,Open2300\PHP-WU,2013-01-23 21:38:00,
2013-01-23 16:44:00,41.9,16.7,30.26,WSW,247,0.0,-999.0,36,0.00,Cloudy,,0.00,Open2300\PHP-WU,2013-01-23 21:44:00,
2013-01-23 16:51:00,41.5,16.4,30.26,WSW,247,0.0,-999.0,36,0.00,Cloudy,,0.00,Open2300\PHP-WU,2013-01-23 21:51:00,
2013-01-23 16:56:00,41.2,16.1,30.27,WSW,247,0.0,-999.0,36,0.00,Cloudy,,0.00,Open2300\PHP-WU,2013-01-23 21:56:00,
2013-01-23 17:02:00,40.6,15.6,30.26,WSW,247,0.0,-999.0,36,0.00,Cloudy,,0.00,Open2300\PHP-WU,2013-01-23 22:02:00,
2013-01-23 17:08:00,39.9,15.6,30.27,West,270,2.2,-999.0,37,0.00,Cloudy,,0.00,Open2300\PHP-WU,2013-01-23 22:08:00,
2013-01-23 17:14:00,39.4,15.1,30.26,West,270,0.0,-999.0,37,0.00,Cloudy,,0.00,Open2300\PHP-WU,2013-01-23 22:14:00,
2013-01-23 17:20:00,38.7,14.5,30.27,SW,225,0.0,-999.0,37,0.00,Cloudy,,0.00,Open2300\PHP-WU,2013-01-23 22:20:00,
2013-01-23 17:26:00,37.9,14.5,30.27,WSW,247,0.0,-999.0,38,0.00,Cloudy,,0.00,Open2300\PHP-WU,2013-01-23 22:26:00,
2013-01-23 17:32:00,37.4,14.0,30.27,WSW,247,0.0,-999.0,38,0.00,Cloudy,,0.00,Open2300\PHP-WU,2013-01-23 22:32:00,
2013-01-23 17:39:00,36.7,14.0,30.27,SW,225,0.0,-999.0,39,0.00,Cloudy,,0.00,Open2300\PHP-WU,2013-01-23 22:39:00,
2013-01-23 17:44:00,36.3,13.6,30.27,SW,225,0.0,-999.0,39,0.00,Cloudy,,0.00,Open2300\PHP-WU,2013-01-23 22:44:00,
2013-01-23 17:50:00,35.8,13.8,30.27,SW,225,0.0,-999.0,40,0.00,Cloudy,,0.00,Open2300\PHP-WU,2013-01-23 22:50:00,
2013-01-23 17:56:00,35.2,13.3,30.26,SW,225,0.0,-999.0,40,0.00,Cloudy,,0.00,Open2300\PHP-WU,2013-01-23 22:56:00,
2013-01-23 18:02:00,34.7,13.3,30.26,SW,225,0.0,-999.0,41,0.00,Cloudy,,0.00,Open2300\PHP-WU,2013-01-23 23:02:00,
2013-01-23 18:08:00,34.2,13.4,30.26,SW,225,0.0,-999.0,42,0.00,Cloudy,,0.00,Open2300\PHP-WU,2013-01-23 23:08:00,
2013-01-23 18:14:00,33.6,12.9,30.26,SW,225,0.0,-999.0,42,0.00,Cloudy,,0.00,Open2300\PHP-WU,2013-01-23 23:14:00,
2013-01-23 18:20:00,33.3,13.0,30.25,SW,225,0.0,-999.0,43,0.00,Cloudy,,0.00,Open2300\PHP-WU,2013-01-23 23:20:00,
2013-01-23 18:26:00,32.7,13.1,30.25,SW,225,0.0,-999.0,44,0.00,Cloudy,,0.00,Open2300\PHP-WU,2013-01-23 23:26:00,
2013-01-23 18:32:00,32.0,12.9,30.25,WSW,247,0.0,-999.0,45,0.00,Cloudy,,0.00,Open2300\PHP-WU,2013-01-23 23:32:00,
2013-01-23 18:38:00,31.3,12.8,30.25,WSW,247,0.0,-999.0,46,0.00,Cloudy,,0.00,Open2300\PHP-WU,2013-01-23 23:38:00,
2013-01-23 18:44:00,31.1,12.6,30.25,WSW,247,0.0,-999.0,46,0.00,Cloudy,,0.00,Open2300\PHP-WU,2013-01-23 23:44:00,
2013-01-23 18:50:00,30.7,12.8,30.24,WSW,247,0.0,-999.0,47,0.00,Cloudy,,0.00,Open2300\PHP-WU,2013-01-23 23:50:00,
2013-01-23 18:56:00,30.2,12.8,30.24,WSW,247,0.0,-999.0,48,0.00,Cloudy,,0.00,Open2300\PHP-WU,2013-01-23 23:56:00,
2013-01-23 19:02:00,29.8,13.0,30.24,WSW,247,0.0,-999.0,49,0.00,Cloudy,,0.00,Open2300\PHP-WU,2013-01-24 00:02:00,
2013-01-23 19:08:00,29.5,12.7,30.24,WSW,247,0.0,-999.0,49,0.00,Cloudy,,0.00,Open2300\PHP-WU,2013-01-24 00:08:00,
2013-01-23 19:14:00,29.1,12.8,30.23,WSW,247,0.0,-999.0,50,0.00,Cloudy,,0.00,Open2300\PHP-WU,2013-01-24 00:14:00,
2013-01-23 19:20:00,28.8,12.9,30.23,WSW,247,0.0,-999.0,51,0.00,Cloudy,,0.00,Open2300\PHP-WU,2013-01-24 00:20:00,
2013-01-23 19:26:00,28.6,12.8,30.23,WSW,247,0.0,-999.0,51,0.00,Cloudy,,0.00,Open2300\PHP-WU,2013-01-24 00:26:00,
2013-01-23 19:32:00,28.2,12.8,30.23,WSW,247,0.0,-999.0,52,0.00,Cloudy,,0.00,Open2300\PHP-WU,2013-01-24 00:32:00,
2013-01-23 19:38:00,28.0,13.1,30.23,WSW,247,0.0,-999.0,53,0.00,Cloudy,,0.00,Open2300\PHP-WU,2013-01-24 00:38:00,
2013-01-23 19:44:00,28.0,13.1,30.23,WSW,247,0.0,-999.0,53,0.00,Cloudy,,0.00,Open2300\PHP-WU,2013-01-24 00:44:00,
2013-01-23 19:50:00,27.7,13.1,30.22,WSW,247,0.0,-999.0,54,0.00,Cloudy,,0.00,Open2300\PHP-WU,2013-01-24 00:50:00,
2013-01-23 19:56:00,27.7,13.6,30.22,WSW,247,0.0,-999.0,55,0.00,Cloudy,,0.00,Open2300\PHP-WU,2013-01-24 00:56:00,
2013-01-23 20:02:00,27.3,13.2,30.22,WSW,247,0.0,-999.0,55,0.00,Cloudy,,0.00,Open2300\PHP-WU,2013-01-24 01:02:00,
2013-01-23 20:08:00,27.1,13.4,30.22,WSW,247,0.0,-999.0,56,0.00,Cloudy,,0.00,Open2300\PHP-WU,2013-01-24 01:08:00,
2013-01-23 20:14:00,27.1,13.4,30.22,WSW,247,0.0,-999.0,56,0.00,Cloudy,,0.00,Open2300\PHP-WU,2013-01-24 01:14:00,
2013-01-23 20:20:00,26.8,13.5,30.22,WSW,247,0.0,-999.0,57,0.00,Cloudy,,0.00,Open2300\PHP-WU,2013-01-24 01:20:00,
2013-01-23 20:26:00,26.6,13.3,30.22,WSW,247,0.0,-999.0,57,0.00,Cloudy,,0.00,Open2300\PHP-WU,2013-01-24 01:26:00,
2013-01-23 20:32:00,26.4,13.1,30.21,WSW,247,0.0,-999.0,57,0.00,Cloudy,,0.00,Open2300\PHP-WU,2013-01-24 01:32:00,
2013-01-23 20:38:00,26.2,13.4,30.21,WSW,247,0.0,-999.0,58,0.00,Cloudy,,0.00,Open2300\PHP-WU,2013-01-24 01:38:00,
2013-01-23 20:44:00,26.2,13.4,30.21,WSW,247,0.0,-999.0,58,0.00,Cloudy,,0.00,Open2300\PHP-WU,2013-01-24 01:44:00,
2013-01-23 20:50:00,26.1,13.6,30.21,SW,225,0.0,-999.0,59,0.00,Cloudy,,0.00,Open2300\PHP-WU,2013-01-24 01:50:00,
2013-01-23 20:56:00,26.1,13.6,30.21,SW,225,0.0,-999.0,59,0.00,Cloudy,,0.00,Open2300\PHP-WU,2013-01-24 01:56:00,
2013-01-23 21:02:00,26.1,13.6,30.21,WSW,247,0.0,-999.0,59,0.00,Cloudy,,0.00,Open2300\PHP-WU,2013-01-24 02:02:00,
2013-01-23 21:08:00,26.2,13.8,30.20,SSW,202,0.0,-999.0,59,0.00,Cloudy,,0.00,Open2300\PHP-WU,2013-01-24 02:08:00,
2013-01-23 21:14:00,26.6,14.1,30.20,SSW,202,0.0,-999.0,59,0.00,Cloudy,,0.00,Open2300\PHP-WU,2013-01-24 02:14:00,
2013-01-23 21:20:00,26.8,14.3,30.20,SSW,202,0.0,-999.0,59,0.00,Cloudy,,0.00,Open2300\PHP-WU,2013-01-24 02:20:00,
2013-01-23 21:26:00,27.1,14.3,30.20,SSW,202,0.0,-999.0,58,0.00,Cloudy,,0.00,Open2300\PHP-WU,2013-01-24 02:26:00,
2013-01-23 21:32:00,27.3,14.4,30.20,SSW,202,0.0,-999.0,58,0.00,Cloudy,,0.00,Open2300\PHP-WU,2013-01-24 02:32:00,
2013-01-23 21:38:00,27.3,14.4,30.19,SSW,202,0.0,-999.0,58,0.00,Rainy,,0.00,Open2300\PHP-WU,2013-01-24 02:38:00,
2013-01-23 21:44:00,27.1,14.3,30.19,SSW,202,0.0,-999.0,58,0.00,Rainy,,0.00,Open2300\PHP-WU,2013-01-24 02:44:00,
2013-01-23 21:50:00,27.1,14.3,30.18,SSW,202,0.0,-999.0,58,0.00,Rainy,,0.00,Open2300\PHP-WU,2013-01-24 02:50:00,
2013-01-23 21:56:00,27.1,14.3,30.18,SSW,202,0.0,-999.0,58,0.00,Rainy,,0.00,Open2300\PHP-WU,2013-01-24 02:56:00,
2013-01-23 22:02:00,27.1,14.3,30.18,SW,225,0.0,-999.0,58,0.00,Rainy,,0.00,Open2300\PHP-WU,2013-01-24 03:02:00,
2013-01-23 22:08:00,27.1,14.7,30.18,SW,225,0.0,-999.0,59,0.00,Rainy,,0.00,Open2300\PHP-WU,2013-01-24 03:08:00,
2013-01-23 22:14:00,27.1,14.3,30.18,SW,225,0.0,-999.0,58,0.00,Rainy,,0.00,Open2300\PHP-WU,2013-01-24 03:14:00,
2013-01-23 22:20:00,27.1,14.7,30.18,SW,225,0.0,-999.0,59,0.00,Rainy,,0.00,Open2300\PHP-WU,2013-01-24 03:20:00,
2013-01-23 22:26:00,27.1,14.7,30.17,SW,225,0.0,-999.0,59,0.00,Rainy,,0.00,Open2300\PHP-WU,2013-01-24 03:26:00,
2013-01-23 22:32:00,27.1,14.7,30.17,SW,225,0.0,-999.0,59,0.00,Rainy,,0.00,Open2300\PHP-WU,2013-01-24 03:32:00,
2013-01-23 22:38:00,27.0,14.5,30.17,SW,225,0.0,-999.0,59,0.00,Rainy,,0.00,Open2300\PHP-WU,2013-01-24 03:38:00,
2013-01-23 22:44:00,26.8,14.7,30.17,SW,225,0.0,-999.0,60,0.00,Rainy,,0.00,Open2300\PHP-WU,2013-01-24 03:44:00,
2013-01-23 22:50:00,26.8,14.7,30.16,SW,225,0.0,-999.0,60,0.00,Rainy,,0.00,Open2300\PHP-WU,2013-01-24 03:50:00,
2013-01-23 22:56:00,27.0,14.9,30.15,WSW,247,0.0,-999.0,60,0.00,Rainy,,0.00,Open2300\PHP-WU,2013-01-24 03:56:00,
2013-01-23 23:02:00,27.1,15.1,30.15,SW,225,0.0,-999.0,60,0.00,Rainy,,0.00,Open2300\PHP-WU,2013-01-24 04:02:00,
2013-01-23 23:08:00,27.5,15.4,30.14,WSW,247,0.0,-999.0,60,0.00,Rainy,,0.00,Open2300\PHP-WU,2013-01-24 04:08:00,
2013-01-23 23:14:00,27.7,15.2,30.14,SSW,202,0.0,-999.0,59,0.00,Rainy,,0.00,Open2300\PHP-WU,2013-01-24 04:14:00,
2013-01-23 23:20:00,28.0,15.6,30.14,WSW,247,0.0,-999.0,59,0.00,Rainy,,0.00,Open2300\PHP-WU,2013-01-24 04:20:00,
2013-01-23 23:26:00,28.6,16.1,30.14,SSW,202,0.0,-999.0,59,0.00,Rainy,,0.00,Open2300\PHP-WU,2013-01-24 04:26:00,
2013-01-23 23:32:00,28.8,15.8,30.14,WSW,247,0.0,-999.0,58,0.00,Rainy,,0.00,Open2300\PHP-WU,2013-01-24 04:32:00,
2013-01-23 23:38:00,29.1,16.2,30.13,South,180,0.0,-999.0,58,0.00,Rainy,,0.00,Open2300\PHP-WU,2013-01-24 04:38:00,
2013-01-23 23:44:00,29.1,15.7,30.13,WSW,247,0.0,-999.0,57,0.00,Rainy,,0.00,Open2300\PHP-WU,2013-01-24 04:44:00,
2013-01-23 23:50:00,29.3,15.9,30.13,West,270,0.0,-999.0,57,0.00,Rainy,,0.00,Open2300\PHP-WU,2013-01-24 04:50:00,
2013-01-23 23:56:00,29.3,15.9,30.12,SW,225,0.0,-999.0,57,0.00,Rainy,,0.00,Open2300\PHP-WU,2013-01-24 04:56:00,